iso_date,epoch_date,Year,Hour,Min,DOY,POS_DOY,Lat,Lon,BP,Ts,Ta,has_bp,has_ts,has_ta,BuoyID,Buoy_Type,Buoy_Owner,Logistics,Hemisphere
2021-09-20T18:00:00Z,1632160800,2021,18,0,263.75,263.75,70.309,-0.484,999.7,8.98,-999.0,yes,yes,no,300234068442260,BD2VHI,AOML,UNKNOWN,North
2021-09-20T21:00:00Z,1632171600,2021,21,0,263.875,263.875,70.343,-0.525,996.2,9.08,-999.0,yes,yes,no,300234068442260,BD2VHI,AOML,UNKNOWN,North
2021-09-21T00:00:00Z,1632182400,2021,0,0,264.0,264.0,70.378,-0.562,994.2,9.01,-999.0,yes,yes,no,300234068442260,BD2VHI,AOML,UNKNOWN,North
2021-09-21T03:00:00Z,1632193200,2021,3,0,264.125,264.125,70.407,-0.593,992.8,9.02,-999.0,yes,yes,no,300234068442260,BD2VHI,AOML,UNKNOWN,North
2021-09-21T06:00:00Z,1632204000,2021,6,0,264.25,264.25,70.434,-0.635,992.0,8.97,-999.0,yes,yes,no,300234068442260,BD2VHI,AOML,UNKNOWN,North
2021-09-21T09:00:00Z,1632214800,2021,9,0,264.375,264.375,70.457,-0.664,991.2,8.98,-999.0,yes,yes,no,300234068442260,BD2VHI,AOML,UNKNOWN,North
2021-09-21T12:00:00Z,1632225600,2021,12,0,264.5,264.5,70.485,-0.683,990.1,8.99,-999.0,yes,yes,no,300234068442260,BD2VHI,AOML,UNKNOWN,North
2021-09-21T15:00:00Z,1632236400,2021,15,0,264.625,264.625,70.514,-0.683,988.8,9.02,-999.0,yes,yes,no,300234068442260,BD2VHI,AOML,UNKNOWN,North
2021-09-21T18:00:00Z,1632247200,2021,18,0,264.75,264.75,70.539,-0.675,985.8,9.03,-999.0,yes,yes,no,300234068442260,BD2VHI,AOML,UNKNOWN,North
2021-09-21T21:00:00Z,1632258000,2021,21,0,264.875,264.875,70.569,-0.702,978.9,9.01,-999.0,yes,yes,no,300234068442260,BD2VHI,AOML,UNKNOWN,North
2021-09-22T00:00:00Z,1632268800,2021,0,0,265.0,265.0,70.613,-0.802,967.2,9.04,-999.0,yes,yes,no,300234068442260,BD2VHI,AOML,UNKNOWN,North
2021-09-22T03:00:00Z,1632279600,2021,3,0,265.125,265.125,70.671,-0.765,961.3,8.96,-999.0,yes,yes,no,300234068442260,BD2VHI,AOML,UNKNOWN,North
2021-09-22T06:00:00Z,1632290400,2021,6,0,265.25,265.25,70.727,-0.671,956.4,9.06,-999.0,yes,yes,no,300234068442260,BD2VHI,AOML,UNKNOWN,North
2021-09-22T09:00:00Z,1632301200,2021,9,0,265.375,265.375,70.771,-0.564,956.4,9.14,-999.0,yes,yes,no,300234068442260,BD2VHI,AOML,UNKNOWN,North
2021-09-22T12:00:00Z,1632312000,2021,12,0,265.5,265.5,70.807,-0.449,958.1,9.11,-999.0,yes,yes,no,300234068442260,BD2VHI,AOML,UNKNOWN,North
2021-09-22T15:00:00Z,1632322800,2021,15,0,265.625,265.625,70.841,-0.333,961.5,9.02,-999.0,yes,yes,no,300234068442260,BD2VHI,AOML,UNKNOWN,North
2021-09-22T18:00:00Z,1632333600,2021,18,0,265.75,265.75,70.879,-0.21,964.2,8.93,-999.0,yes,yes,no,300234068442260,BD2VHI,AOML,UNKNOWN,North
2021-09-22T21:00:00Z,1632344400,2021,21,0,265.875,265.875,70.914,-0.047,967.7,8.74,-999.0,yes,yes,no,300234068442260,BD2VHI,AOML,UNKNOWN,North
2021-09-23T00:00:00Z,1632355200,2021,0,0,266.0,266.0,70.937,0.108,970.0,8.68,-999.0,yes,yes,no,300234068442260,BD2VHI,AOML,UNKNOWN,North
2021-09-23T03:00:00Z,1632366000,2021,3,0,266.125,266.125,70.959,0.212,971.5,8.67,-999.0,yes,yes,no,300234068442260,BD2VHI,AOML,UNKNOWN,North
2021-09-23T06:00:00Z,1632376800,2021,6,0,266.25,266.25,70.982,0.301,973.9,8.65,-999.0,yes,yes,no,300234068442260,BD2VHI,AOML,UNKNOWN,North
2021-09-23T09:00:00Z,1632387600,2021,9,0,266.375,266.375,71.013,0.384,975.5,8.67,-999.0,yes,yes,no,300234068442260,BD2VHI,AOML,UNKNOWN,North
2021-09-23T12:00:00Z,1632398400,2021,12,0,266.5,266.5,71.023,0.501,976.4,8.63,-999.0,yes,yes,no,300234068442260,BD2VHI,AOML,UNKNOWN,North
2021-09-23T15:00:00Z,1632409200,2021,15,0,266.625,266.625,71.021,0.602,977.5,8.6,-999.0,yes,yes,no,300234068442260,BD2VHI,AOML,UNKNOWN,North
2021-09-23T18:00:00Z,1632420000,2021,18,0,266.75,266.75,71.017,0.689,979.3,8.58,-999.0,yes,yes,no,300234068442260,BD2VHI,AOML,UNKNOWN,North
2021-09-23T21:00:00Z,1632430800,2021,21,0,266.875,266.875,71.021,0.802,980.1,8.58,-999.0,yes,yes,no,300234068442260,BD2VHI,AOML,UNKNOWN,North
2021-09-24T00:00:00Z,1632441600,2021,0,0,267.0,267.0,71.023,0.944,980.7,8.44,-999.0,yes,yes,no,300234068442260,BD2VHI,AOML,UNKNOWN,North
2021-09-24T03:00:00Z,1632452400,2021,3,0,267.125,267.125,71.034,1.059,981.4,8.44,-999.0,yes,yes,no,300234068442260,BD2VHI,AOML,UNKNOWN,North
2021-09-24T06:00:00Z,1632463200,2021,6,0,267.25,267.25,71.053,1.134,982.5,8.4,-999.0,yes,yes,no,300234068442260,BD2VHI,AOML,UNKNOWN,North
2021-09-24T09:00:00Z,1632474000,2021,9,0,267.375,267.375,71.081,1.198,983.4,8.52,-999.0,yes,yes,no,300234068442260,BD2VHI,AOML,UNKNOWN,North
2021-09-24T12:00:00Z,1632484800,2021,12,0,267.5,267.5,71.111,1.268,984.2,8.5,-999.0,yes,yes,no,300234068442260,BD2VHI,AOML,UNKNOWN,North
2021-09-24T15:00:00Z,1632495600,2021,15,0,267.625,267.625,71.134,1.312,985.0,8.45,-999.0,yes,yes,no,300234068442260,BD2VHI,AOML,UNKNOWN,North
2021-09-24T18:00:00Z,1632506400,2021,18,0,267.75,267.75,71.158,1.342,986.3,8.45,-999.0,yes,yes,no,300234068442260,BD2VHI,AOML,UNKNOWN,North
2021-09-24T21:00:00Z,1632517200,2021,21,0,267.875,267.875,71.186,1.365,987.4,8.45,-999.0,yes,yes,no,300234068442260,BD2VHI,AOML,UNKNOWN,North
2021-09-25T00:00:00Z,1632528000,2021,0,0,268.0,268.0,71.211,1.42,988.6,8.42,-999.0,yes,yes,no,300234068442260,BD2VHI,AOML,UNKNOWN,North
2021-09-25T03:00:00Z,1632538800,2021,3,0,268.125,268.125,71.232,1.46,989.9,8.44,-999.0,yes,yes,no,300234068442260,BD2VHI,AOML,UNKNOWN,North
2021-09-25T06:00:00Z,1632549600,2021,6,0,268.25,268.25,71.253,1.478,991.1,8.39,-999.0,yes,yes,no,300234068442260,BD2VHI,AOML,UNKNOWN,North
2021-09-25T09:00:00Z,1632560400,2021,9,0,268.375,268.375,71.272,1.494,993.0,8.47,-999.0,yes,yes,no,300234068442260,BD2VHI,AOML,UNKNOWN,North
2021-09-25T12:00:00Z,1632571200,2021,12,0,268.5,268.5,71.296,1.523,994.3,8.57,-999.0,yes,yes,no,300234068442260,BD2VHI,AOML,UNKNOWN,North
2021-09-25T15:00:00Z,1632582000,2021,15,0,268.625,268.625,71.318,1.575,995.6,8.66,-999.0,yes,yes,no,300234068442260,BD2VHI,AOML,UNKNOWN,North
2021-09-25T18:00:00Z,1632592800,2021,18,0,268.75,268.75,71.338,1.617,996.2,8.54,-999.0,yes,yes,no,300234068442260,BD2VHI,AOML,UNKNOWN,North
2021-09-25T21:00:00Z,1632603600,2021,21,0,268.875,268.875,71.358,1.65,996.7,8.56,-999.0,yes,yes,no,300234068442260,BD2VHI,AOML,UNKNOWN,North
2021-09-26T00:00:00Z,1632614400,2021,0,0,269.0,269.0,71.376,1.717,997.6,8.7,-999.0,yes,yes,no,300234068442260,BD2VHI,AOML,UNKNOWN,North
2021-09-26T03:00:00Z,1632625200,2021,3,0,269.125,269.125,71.389,1.808,998.5,8.66,-999.0,yes,yes,no,300234068442260,BD2VHI,AOML,UNKNOWN,North
2021-09-26T06:00:00Z,1632636000,2021,6,0,269.25,269.25,71.391,1.895,1000.2,8.46,-999.0,yes,yes,no,300234068442260,BD2VHI,AOML,UNKNOWN,North
2021-09-26T09:00:00Z,1632646800,2021,9,0,269.375,269.375,71.389,1.958,1001.8,8.61,-999.0,yes,yes,no,300234068442260,BD2VHI,AOML,UNKNOWN,North
2021-09-26T12:00:00Z,1632657600,2021,12,0,269.5,269.5,71.386,2.004,1002.9,8.68,-999.0,yes,yes,no,300234068442260,BD2VHI,AOML,UNKNOWN,North
2021-09-26T15:00:00Z,1632668400,2021,15,0,269.625,269.625,71.387,2.026,1003.7,8.68,-999.0,yes,yes,no,300234068442260,BD2VHI,AOML,UNKNOWN,North
2021-09-26T18:00:00Z,1632679200,2021,18,0,269.75,269.75,71.388,2.04,1004.6,8.65,-999.0,yes,yes,no,300234068442260,BD2VHI,AOML,UNKNOWN,North
2021-09-26T21:00:00Z,1632690000,2021,21,0,269.875,269.875,71.397,2.06,1005.0,8.07,-999.0,yes,yes,no,300234068442260,BD2VHI,AOML,UNKNOWN,North
2021-09-27T00:00:00Z,1632700800,2021,0,0,270.0,270.0,71.406,2.037,1004.3,8.41,-999.0,yes,yes,no,300234068442260,BD2VHI,AOML,UNKNOWN,North
2021-09-27T03:00:00Z,1632711600,2021,3,0,270.125,270.125,71.426,2.017,1003.9,8.01,-999.0,yes,yes,no,300234068442260,BD2VHI,AOML,UNKNOWN,North
2021-09-27T06:00:00Z,1632722400,2021,6,0,270.25,270.25,71.468,2.101,1004.9,8.12,-999.0,yes,yes,no,300234068442260,BD2VHI,AOML,UNKNOWN,North
2021-09-27T09:00:00Z,1632733200,2021,9,0,270.375,270.375,71.499,2.244,1006.6,7.85,-999.0,yes,yes,no,300234068442260,BD2VHI,AOML,UNKNOWN,North
2021-09-27T12:00:00Z,1632744000,2021,12,0,270.5,270.5,71.519,2.36,1008.5,7.98,-999.0,yes,yes,no,300234068442260,BD2VHI,AOML,UNKNOWN,North
2021-09-27T15:00:00Z,1632754800,2021,15,0,270.625,270.625,71.56,2.428,1009.5,8.24,-999.0,yes,yes,no,300234068442260,BD2VHI,AOML,UNKNOWN,North
2021-09-27T18:00:00Z,1632765600,2021,18,0,270.75,270.75,71.628,2.487,1010.8,8.19,-999.0,yes,yes,no,300234068442260,BD2VHI,AOML,UNKNOWN,North
2021-09-27T21:00:00Z,1632776400,2021,21,0,270.875,270.875,71.69,2.538,1011.6,8.23,-999.0,yes,yes,no,300234068442260,BD2VHI,AOML,UNKNOWN,North
2021-09-28T00:00:00Z,1632787200,2021,0,0,271.0,271.0,71.745,2.52,1011.0,7.89,-999.0,yes,yes,no,300234068442260,BD2VHI,AOML,UNKNOWN,North
2021-09-28T03:00:00Z,1632798000,2021,3,0,271.125,271.125,71.807,2.426,1010.2,7.74,-999.0,yes,yes,no,300234068442260,BD2VHI,AOML,UNKNOWN,North
2021-09-28T06:00:00Z,1632808800,2021,6,0,271.25,271.25,71.876,2.336,1009.1,7.54,-999.0,yes,yes,no,300234068442260,BD2VHI,AOML,UNKNOWN,North
2021-09-28T09:00:00Z,1632819600,2021,9,0,271.375,271.375,71.94,2.239,1008.6,7.48,-999.0,yes,yes,no,300234068442260,BD2VHI,AOML,UNKNOWN,North
2021-09-28T12:00:00Z,1632830400,2021,12,0,271.5,271.5,72.005,2.174,1009.7,7.47,-999.0,yes,yes,no,300234068442260,BD2VHI,AOML,UNKNOWN,North
2021-09-28T15:00:00Z,1632841200,2021,15,0,271.625,271.625,72.072,2.199,1012.6,6.89,-999.0,yes,yes,no,300234068442260,BD2VHI,AOML,UNKNOWN,North
2021-09-28T18:00:00Z,1632852000,2021,18,0,271.75,271.75,72.12,2.297,1016.6,6.87,-999.0,yes,yes,no,300234068442260,BD2VHI,AOML,UNKNOWN,North
2021-09-28T21:00:00Z,1632862800,2021,21,0,271.875,271.875,72.165,2.362,1019.8,7.15,-999.0,yes,yes,no,300234068442260,BD2VHI,AOML,UNKNOWN,North
2021-09-29T00:00:00Z,1632873600,2021,0,0,272.0,272.0,72.217,2.464,1021.8,7.24,-999.0,yes,yes,no,300234068442260,BD2VHI,AOML,UNKNOWN,North
2021-09-29T03:00:00Z,1632884400,2021,3,0,272.125,272.125,72.255,2.592,1023.0,7.12,-999.0,yes,yes,no,300234068442260,BD2VHI,AOML,UNKNOWN,North
2021-09-29T06:00:00Z,1632895200,2021,6,0,272.25,272.25,72.284,2.665,1024.2,7.18,-999.0,yes,yes,no,300234068442260,BD2VHI,AOML,UNKNOWN,North
2021-09-29T09:00:00Z,1632906000,2021,9,0,272.375,272.375,72.321,2.751,1025.6,7.04,-999.0,yes,yes,no,300234068442260,BD2VHI,AOML,UNKNOWN,North
2021-09-29T12:00:00Z,1632916800,2021,12,0,272.5,272.5,72.346,2.844,1025.7,6.62,-999.0,yes,yes,no,300234068442260,BD2VHI,AOML,UNKNOWN,North
2021-09-29T15:00:00Z,1632927600,2021,15,0,272.625,272.625,72.364,2.865,1025.2,6.68,-999.0,yes,yes,no,300234068442260,BD2VHI,AOML,UNKNOWN,North
2021-09-29T18:00:00Z,1632938400,2021,18,0,272.75,272.75,72.373,2.815,1024.7,6.68,-999.0,yes,yes,no,300234068442260,BD2VHI,AOML,UNKNOWN,North
2021-09-29T21:00:00Z,1632949200,2021,21,0,272.875,272.875,72.39,2.725,1024.2,6.76,-999.0,yes,yes,no,300234068442260,BD2VHI,AOML,UNKNOWN,North
2021-09-30T00:00:00Z,1632960000,2021,0,0,273.0,273.0,72.406,2.646,1023.1,6.74,-999.0,yes,yes,no,300234068442260,BD2VHI,AOML,UNKNOWN,North
2021-09-30T03:00:00Z,1632970800,2021,3,0,273.125,273.125,72.422,2.542,1022.6,6.67,-999.0,yes,yes,no,300234068442260,BD2VHI,AOML,UNKNOWN,North
2021-09-30T06:00:00Z,1632981600,2021,6,0,273.25,273.25,72.437,2.411,1021.6,6.76,-999.0,yes,yes,no,300234068442260,BD2VHI,AOML,UNKNOWN,North
2021-09-30T09:00:00Z,1632992400,2021,9,0,273.375,273.375,72.455,2.284,1021.0,6.79,-999.0,yes,yes,no,300234068442260,BD2VHI,AOML,UNKNOWN,North
2021-09-30T12:00:00Z,1633003200,2021,12,0,273.5,273.5,72.473,2.147,1020.4,6.75,-999.0,yes,yes,no,300234068442260,BD2VHI,AOML,UNKNOWN,North
2021-09-30T15:00:00Z,1633014000,2021,15,0,273.625,273.625,72.491,2.003,1019.1,6.78,-999.0,yes,yes,no,300234068442260,BD2VHI,AOML,UNKNOWN,North
2021-09-30T18:00:00Z,1633024800,2021,18,0,273.75,273.75,72.511,1.847,1018.4,6.77,-999.0,yes,yes,no,300234068442260,BD2VHI,AOML,UNKNOWN,North
2021-09-30T21:00:00Z,1633035600,2021,21,0,273.875,273.875,72.542,1.72,1017.9,6.72,-999.0,yes,yes,no,300234068442260,BD2VHI,AOML,UNKNOWN,North
2021-10-01T00:00:00Z,1633046400,2021,0,0,274.0,274.0,72.564,1.608,1016.5,6.54,-999.0,yes,yes,no,300234068442260,BD2VHI,AOML,UNKNOWN,North
2021-10-01T03:00:00Z,1633057200,2021,3,0,274.125,274.125,72.585,1.51,1015.0,6.57,-999.0,yes,yes,no,300234068442260,BD2VHI,AOML,UNKNOWN,North
2021-10-01T06:00:00Z,1633068000,2021,6,0,274.25,274.25,72.601,1.432,1013.7,6.55,-999.0,yes,yes,no,300234068442260,BD2VHI,AOML,UNKNOWN,North
2021-10-01T09:00:00Z,1633078800,2021,9,0,274.375,274.375,72.619,1.373,1012.8,6.55,-999.0,yes,yes,no,300234068442260,BD2VHI,AOML,UNKNOWN,North
2021-10-01T12:00:00Z,1633089600,2021,12,0,274.5,274.5,72.638,1.338,1011.5,6.58,-999.0,yes,yes,no,300234068442260,BD2VHI,AOML,UNKNOWN,North
2021-10-01T15:00:00Z,1633100400,2021,15,0,274.625,274.625,72.654,1.314,1009.6,6.61,-999.0,yes,yes,no,300234068442260,BD2VHI,AOML,UNKNOWN,North
2021-10-01T18:00:00Z,1633111200,2021,18,0,274.75,274.75,72.67,1.291,1007.9,6.76,-999.0,yes,yes,no,300234068442260,BD2VHI,AOML,UNKNOWN,North
2021-10-01T21:00:00Z,1633122000,2021,21,0,274.875,274.875,72.691,1.259,1006.9,6.79,-999.0,yes,yes,no,300234068442260,BD2VHI,AOML,UNKNOWN,North
2021-10-02T00:00:00Z,1633132800,2021,0,0,275.0,275.0,72.716,1.244,1005.4,6.42,-999.0,yes,yes,no,300234068442260,BD2VHI,AOML,UNKNOWN,North
2021-10-02T03:00:00Z,1633143600,2021,3,0,275.125,275.125,72.738,1.241,1003.9,6.55,-999.0,yes,yes,no,300234068442260,BD2VHI,AOML,UNKNOWN,North
2021-10-02T06:00:00Z,1633154400,2021,6,0,275.25,275.25,72.764,1.224,1003.3,6.55,-999.0,yes,yes,no,300234068442260,BD2VHI,AOML,UNKNOWN,North
2021-10-02T09:00:00Z,1633165200,2021,9,0,275.375,275.375,72.795,1.211,1003.8,6.55,-999.0,yes,yes,no,300234068442260,BD2VHI,AOML,UNKNOWN,North
2021-10-02T12:00:00Z,1633176000,2021,12,0,275.5,275.5,72.816,1.202,1003.2,6.54,-999.0,yes,yes,no,300234068442260,BD2VHI,AOML,UNKNOWN,North
2021-10-02T15:00:00Z,1633186800,2021,15,0,275.625,275.625,72.823,1.148,1002.4,6.37,-999.0,yes,yes,no,300234068442260,BD2VHI,AOML,UNKNOWN,North
2021-10-02T18:00:00Z,1633197600,2021,18,0,275.75,275.75,72.842,1.053,1002.0,5.9,-999.0,yes,yes,no,300234068442260,BD2VHI,AOML,UNKNOWN,North
2021-10-02T21:00:00Z,1633208400,2021,21,0,275.875,275.875,72.87,1.018,1003.2,5.96,-999.0,yes,yes,no,300234068442260,BD2VHI,AOML,UNKNOWN,North
2021-10-03T00:00:00Z,1633219200,2021,0,0,276.0,276.0,72.891,1.006,1004.4,6.36,-999.0,yes,yes,no,300234068442260,BD2VHI,AOML,UNKNOWN,North
2021-10-03T03:00:00Z,1633230000,2021,3,0,276.125,276.125,72.908,0.985,1005.4,6.62,-999.0,yes,yes,no,300234068442260,BD2VHI,AOML,UNKNOWN,North
2021-10-03T06:00:00Z,1633240800,2021,6,0,276.25,276.25,72.924,0.97,1006.0,6.6,-999.0,yes,yes,no,300234068442260,BD2VHI,AOML,UNKNOWN,North
2021-10-03T09:00:00Z,1633251600,2021,9,0,276.375,276.375,72.945,0.971,1006.7,6.65,-999.0,yes,yes,no,300234068442260,BD2VHI,AOML,UNKNOWN,North
2021-10-03T12:00:00Z,1633262400,2021,12,0,276.5,276.5,72.962,0.98,1006.6,6.59,-999.0,yes,yes,no,300234068442260,BD2VHI,AOML,UNKNOWN,North
2021-10-03T15:00:00Z,1633273200,2021,15,0,276.625,276.625,72.965,0.971,1005.4,6.47,-999.0,yes,yes,no,300234068442260,BD2VHI,AOML,UNKNOWN,North
2021-10-03T18:00:00Z,1633284000,2021,18,0,276.75,276.75,72.97,0.954,1004.7,6.56,-999.0,yes,yes,no,300234068442260,BD2VHI,AOML,UNKNOWN,North
2021-10-03T21:00:00Z,1633294800,2021,21,0,276.875,276.875,72.976,0.946,1002.8,6.64,-999.0,yes,yes,no,300234068442260,BD2VHI,AOML,UNKNOWN,North
2021-10-04T00:00:00Z,1633305600,2021,0,0,277.0,277.0,72.979,0.913,1000.3,6.47,-999.0,yes,yes,no,300234068442260,BD2VHI,AOML,UNKNOWN,North
2021-10-04T03:00:00Z,1633316400,2021,3,0,277.125,277.125,72.977,0.853,997.9,6.51,-999.0,yes,yes,no,300234068442260,BD2VHI,AOML,UNKNOWN,North
2021-10-04T06:00:00Z,1633327200,2021,6,0,277.25,277.25,72.977,0.778,994.8,6.32,-999.0,yes,yes,no,300234068442260,BD2VHI,AOML,UNKNOWN,North
2021-10-04T09:00:00Z,1633338000,2021,9,0,277.375,277.375,72.972,0.714,991.6,6.31,-999.0,yes,yes,no,300234068442260,BD2VHI,AOML,UNKNOWN,North
2021-10-04T12:00:00Z,1633348800,2021,12,0,277.5,277.5,72.955,0.643,988.7,6.22,-999.0,yes,yes,no,300234068442260,BD2VHI,AOML,UNKNOWN,North
2021-10-04T15:00:00Z,1633359600,2021,15,0,277.625,277.625,72.931,0.562,987.3,5.87,-999.0,yes,yes,no,300234068442260,BD2VHI,AOML,UNKNOWN,North
2021-10-04T18:00:00Z,1633370400,2021,18,0,277.75,277.75,72.913,0.504,987.6,5.85,-999.0,yes,yes,no,300234068442260,BD2VHI,AOML,UNKNOWN,North
2021-10-04T21:00:00Z,1633381200,2021,21,0,277.875,277.875,72.888,0.495,987.9,5.81,-999.0,yes,yes,no,300234068442260,BD2VHI,AOML,UNKNOWN,North
2021-10-05T00:00:00Z,1633392000,2021,0,0,278.0,278.0,72.862,0.499,988.0,6.01,-999.0,yes,yes,no,300234068442260,BD2VHI,AOML,UNKNOWN,North
2021-10-05T03:00:00Z,1633402800,2021,3,0,278.125,278.125,72.828,0.514,988.3,6.46,-999.0,yes,yes,no,300234068442260,BD2VHI,AOML,UNKNOWN,North
2021-10-05T06:00:00Z,1633413600,2021,6,0,278.25,278.25,72.779,0.526,989.6,6.41,-999.0,yes,yes,no,300234068442260,BD2VHI,AOML,UNKNOWN,North
2021-10-05T09:00:00Z,1633424400,2021,9,0,278.375,278.375,72.728,0.534,991.9,6.11,-999.0,yes,yes,no,300234068442260,BD2VHI,AOML,UNKNOWN,North
2021-10-05T12:00:00Z,1633435200,2021,12,0,278.5,278.5,72.683,0.559,994.9,6.09,-999.0,yes,yes,no,300234068442260,BD2VHI,AOML,UNKNOWN,North
2021-10-05T15:00:00Z,1633446000,2021,15,0,278.625,278.625,72.638,0.593,998.0,5.84,-999.0,yes,yes,no,300234068442260,BD2VHI,AOML,UNKNOWN,North
2021-10-05T18:00:00Z,1633456800,2021,18,0,278.75,278.75,72.594,0.631,1001.6,6.23,-999.0,yes,yes,no,300234068442260,BD2VHI,AOML,UNKNOWN,North
2021-10-05T21:00:00Z,1633467600,2021,21,0,278.875,278.875,72.546,0.666,1004.5,6.18,-999.0,yes,yes,no,300234068442260,BD2VHI,AOML,UNKNOWN,North
2021-10-06T00:00:00Z,1633478400,2021,0,0,279.0,279.0,72.509,0.711,1007.9,6.19,-999.0,yes,yes,no,300234068442260,BD2VHI,AOML,UNKNOWN,North
2021-10-06T03:00:00Z,1633489200,2021,3,0,279.125,279.125,72.476,0.798,1010.6,6.24,-999.0,yes,yes,no,300234068442260,BD2VHI,AOML,UNKNOWN,North
2021-10-06T06:00:00Z,1633500000,2021,6,0,279.25,279.25,72.438,0.867,1013.1,6.23,-999.0,yes,yes,no,300234068442260,BD2VHI,AOML,UNKNOWN,North
2021-10-06T09:00:00Z,1633510800,2021,9,0,279.375,279.375,72.41,0.906,1016.0,6.26,-999.0,yes,yes,no,300234068442260,BD2VHI,AOML,UNKNOWN,North
2021-10-06T12:00:00Z,1633521600,2021,12,0,279.5,279.5,72.38,0.956,1018.8,6.21,-999.0,yes,yes,no,300234068442260,BD2VHI,AOML,UNKNOWN,North
2021-10-06T15:00:00Z,1633532400,2021,15,0,279.625,279.625,72.357,1.007,1020.6,6.22,-999.0,yes,yes,no,300234068442260,BD2VHI,AOML,UNKNOWN,North
2021-10-06T18:00:00Z,1633543200,2021,18,0,279.75,279.75,72.341,1.117,1022.0,6.67,-999.0,yes,yes,no,300234068442260,BD2VHI,AOML,UNKNOWN,North
2021-10-06T21:00:00Z,1633554000,2021,21,0,279.875,279.875,72.325,1.242,1022.8,7.12,-999.0,yes,yes,no,300234068442260,BD2VHI,AOML,UNKNOWN,North
2021-10-07T00:00:00Z,1633564800,2021,0,0,280.0,280.0,72.308,1.341,1023.3,7.33,-999.0,yes,yes,no,300234068442260,BD2VHI,AOML,UNKNOWN,North
2021-10-07T03:00:00Z,1633575600,2021,3,0,280.125,280.125,72.301,1.432,1023.2,7.44,-999.0,yes,yes,no,300234068442260,BD2VHI,AOML,UNKNOWN,North
2021-10-07T06:00:00Z,1633586400,2021,6,0,280.25,280.25,72.303,1.538,1023.6,7.36,-999.0,yes,yes,no,300234068442260,BD2VHI,AOML,UNKNOWN,North
2021-10-07T09:00:00Z,1633597200,2021,9,0,280.375,280.375,72.302,1.681,1024.4,7.3,-999.0,yes,yes,no,300234068442260,BD2VHI,AOML,UNKNOWN,North
2021-10-07T12:00:00Z,1633608000,2021,12,0,280.5,280.5,72.289,1.753,1025.5,7.22,-999.0,yes,yes,no,300234068442260,BD2VHI,AOML,UNKNOWN,North
2021-10-07T15:00:00Z,1633618800,2021,15,0,280.625,280.625,72.28,1.812,1026.4,7.33,-999.0,yes,yes,no,300234068442260,BD2VHI,AOML,UNKNOWN,North
2021-10-07T18:00:00Z,1633629600,2021,18,0,280.75,280.75,72.275,1.89,1027.4,7.65,-999.0,yes,yes,no,300234068442260,BD2VHI,AOML,UNKNOWN,North
2021-10-07T21:00:00Z,1633640400,2021,21,0,280.875,280.875,72.266,1.994,1027.9,7.64,-999.0,yes,yes,no,300234068442260,BD2VHI,AOML,UNKNOWN,North
2021-10-08T00:00:00Z,1633651200,2021,0,0,281.0,281.0,72.249,2.076,1027.7,7.57,-999.0,yes,yes,no,300234068442260,BD2VHI,AOML,UNKNOWN,North
2021-10-08T03:00:00Z,1633662000,2021,3,0,281.125,281.125,72.235,2.124,1027.9,7.68,-999.0,yes,yes,no,300234068442260,BD2VHI,AOML,UNKNOWN,North
2021-10-08T06:00:00Z,1633672800,2021,6,0,281.25,281.25,72.217,2.189,1027.2,7.72,-999.0,yes,yes,no,300234068442260,BD2VHI,AOML,UNKNOWN,North
2021-10-08T09:00:00Z,1633683600,2021,9,0,281.375,281.375,72.191,2.241,1026.7,7.3,-999.0,yes,yes,no,300234068442260,BD2VHI,AOML,UNKNOWN,North
2021-10-08T12:00:00Z,1633694400,2021,12,0,281.5,281.5,72.172,2.269,1026.4,7.11,-999.0,yes,yes,no,300234068442260,BD2VHI,AOML,UNKNOWN,North
2021-10-08T15:00:00Z,1633705200,2021,15,0,281.625,281.625,72.163,2.295,1025.7,7.25,-999.0,yes,yes,no,300234068442260,BD2VHI,AOML,UNKNOWN,North
2021-10-08T18:00:00Z,1633716000,2021,18,0,281.75,281.75,72.147,2.319,1024.8,7.1,-999.0,yes,yes,no,300234068442260,BD2VHI,AOML,UNKNOWN,North
2021-10-08T21:00:00Z,1633726800,2021,21,0,281.875,281.875,72.13,2.312,1023.8,7.06,-999.0,yes,yes,no,300234068442260,BD2VHI,AOML,UNKNOWN,North
2021-10-09T00:00:00Z,1633737600,2021,0,0,282.0,282.0,72.106,2.293,1021.7,7.72,-999.0,yes,yes,no,300234068442260,BD2VHI,AOML,UNKNOWN,North
2021-10-09T03:00:00Z,1633748400,2021,3,0,282.125,282.125,72.089,2.237,1019.6,7.68,-999.0,yes,yes,no,300234068442260,BD2VHI,AOML,UNKNOWN,North
2021-10-09T06:00:00Z,1633759200,2021,6,0,282.25,282.25,72.078,2.168,1017.2,7.75,-999.0,yes,yes,no,300234068442260,BD2VHI,AOML,UNKNOWN,North
2021-10-09T09:00:00Z,1633770000,2021,9,0,282.375,282.375,72.07,2.099,1014.9,7.74,-999.0,yes,yes,no,300234068442260,BD2VHI,AOML,UNKNOWN,North
2021-10-09T12:00:00Z,1633780800,2021,12,0,282.5,282.5,72.069,2.052,1013.0,7.72,-999.0,yes,yes,no,300234068442260,BD2VHI,AOML,UNKNOWN,North
2021-10-09T15:00:00Z,1633791600,2021,15,0,282.625,282.625,72.069,2.039,1011.5,7.72,-999.0,yes,yes,no,300234068442260,BD2VHI,AOML,UNKNOWN,North
2021-10-09T18:00:00Z,1633802400,2021,18,0,282.75,282.75,72.07,2.09,1009.9,7.68,-999.0,yes,yes,no,300234068442260,BD2VHI,AOML,UNKNOWN,North
2021-10-09T21:00:00Z,1633813200,2021,21,0,282.875,282.875,72.057,2.116,1008.2,7.69,-999.0,yes,yes,no,300234068442260,BD2VHI,AOML,UNKNOWN,North
2021-10-10T00:00:00Z,1633824000,2021,0,0,283.0,283.0,72.048,2.07,1005.2,7.71,-999.0,yes,yes,no,300234068442260,BD2VHI,AOML,UNKNOWN,North
2021-10-10T03:00:00Z,1633834800,2021,3,0,283.125,283.125,72.049,1.997,1002.5,7.71,-999.0,yes,yes,no,300234068442260,BD2VHI,AOML,UNKNOWN,North
2021-10-10T06:00:00Z,1633845600,2021,6,0,283.25,283.25,72.052,1.985,1001.2,7.68,-999.0,yes,yes,no,300234068442260,BD2VHI,AOML,UNKNOWN,North
2021-10-10T09:00:00Z,1633856400,2021,9,0,283.375,283.375,72.046,2.033,1002.1,7.61,-999.0,yes,yes,no,300234068442260,BD2VHI,AOML,UNKNOWN,North
2021-10-10T12:00:00Z,1633867200,2021,12,0,283.5,283.5,72.025,2.074,1002.8,7.6,-999.0,yes,yes,no,300234068442260,BD2VHI,AOML,UNKNOWN,North
2021-10-10T15:00:00Z,1633878000,2021,15,0,283.625,283.625,72.003,2.004,1003.5,7.69,-999.0,yes,yes,no,300234068442260,BD2VHI,AOML,UNKNOWN,North
2021-10-10T18:00:00Z,1633888800,2021,18,0,283.75,283.75,71.992,1.909,1005.0,7.78,-999.0,yes,yes,no,300234068442260,BD2VHI,AOML,UNKNOWN,North
2021-10-10T21:00:00Z,1633899600,2021,21,0,283.875,283.875,71.966,1.815,1006.8,7.61,-999.0,yes,yes,no,300234068442260,BD2VHI,AOML,UNKNOWN,North
2021-10-11T00:00:00Z,1633910400,2021,0,0,284.0,284.0,71.942,1.687,1008.1,7.61,-999.0,yes,yes,no,300234068442260,BD2VHI,AOML,UNKNOWN,North
2021-10-11T03:00:00Z,1633921200,2021,3,0,284.125,284.125,71.931,1.543,1008.9,7.93,-999.0,yes,yes,no,300234068442260,BD2VHI,AOML,UNKNOWN,North
2021-10-11T06:00:00Z,1633932000,2021,6,0,284.25,284.25,71.917,1.401,1010.2,7.84,-999.0,yes,yes,no,300234068442260,BD2VHI,AOML,UNKNOWN,North
2021-10-11T09:00:00Z,1633942800,2021,9,0,284.375,284.375,71.908,1.248,1011.9,7.79,-999.0,yes,yes,no,300234068442260,BD2VHI,AOML,UNKNOWN,North
2021-10-11T12:00:00Z,1633953600,2021,12,0,284.5,284.5,71.902,1.119,1013.1,7.7,-999.0,yes,yes,no,300234068442260,BD2VHI,AOML,UNKNOWN,North
2021-10-11T15:00:00Z,1633964400,2021,15,0,284.625,284.625,71.902,1.015,1013.9,7.71,-999.0,yes,yes,no,300234068442260,BD2VHI,AOML,UNKNOWN,North
2021-10-11T18:00:00Z,1633975200,2021,18,0,284.75,284.75,71.908,0.91,1015.1,7.03,-999.0,yes,yes,no,300234068442260,BD2VHI,AOML,UNKNOWN,North